Angleton, TX

2:44 AM CDT on October 19, 2017 (GMT -0500)
Brazoria County

Weather History for KLBX - April, 2013

Change the Weather History Date:

Sunday, April 14, 2013

  Actual Average Record
Temperature  
Mean Temperature 66 °F -  
Max Temperature 81 °F 74 °F 86 °F (1999)
Min Temperature 53 °F 60 °F 39 °F (2008)
Cooling Degree Days 2    
Growing Degree Days 16 (Base 50)    
Moisture  
Dew Point 61 °F    
Average Humidity 90    
Maximum Humidity 100    
Minimum Humidity 62    
Precipitation  
Precipitation 0.00 in - - ()
Sea Level Pressure  
Sea Level Pressure 29.75 in    
Wind  
Wind Speed 4 mph (SSE)    
Max Wind Speed 15 mph    
Max Gust Speed 22 mph    
Visibility 6 miles    
Events Fog    
Averages and records for this station are not official NWS values.
T = Trace of Precipitation, MM = Missing Value Source: NWS Daily Summary

Daily Weather History Graph

Daily Weather History Graph

Search for Another Location

Airport or City:

Trip Planner

Search our weather history database for the weather conditions in past years. The results will help you decide how hot, cold, wet, or windy it might be!

Date:

Astronomy

Apr. 14, 2013 Rise Set
Actual Time 6:56 AM CDT 7:47 PM CDT
Civil Twilight 6:32 AM CDT 8:12 PM CDT
Nautical Twilight 6:03 AM CDT 8:40 PM CDT
Astronomical Twilight 5:34 AM CDT 9:10 PM CDT
Moon 9:47 AM CDT (4/14) 11:48 PM CDT (4/14)
Length of Visible Light 13h 39m
Length of Day
12h 51m
Waxing Crescent, 17% of the Moon is Illuminated
Apr 14
Waxing Crescent
Apr 18
First Quarter
Apr 25
Full
May 2
Last Quarter
May 9
New

Hourly Weather History & Observations

Time (CDT) Temp. Heat Index Dew Point Humidity Pressure Visibility Wind Dir Wind Speed Gust Speed Precip Events Conditions
12:44 AM 62.6 °F - 60.8 °F 94% 29.80 in 10.0 mi NE 4.6 mph - N/A   Overcast
12:53 AM 63.0 °F - 61.0 °F 93% 29.79 in 10.0 mi ENE 4.6 mph - N/A   Overcast
1:03 AM 60.8 °F - 60.8 °F 100% 29.79 in 10.0 mi NE 3.5 mph - N/A   Overcast
1:48 AM 59.0 °F - 59.0 °F 100% 29.77 in 1.8 mi Calm Calm - N/A   Overcast
1:53 AM 57.9 °F - 57.9 °F 100% 29.77 in 0.8 mi Calm Calm - N/A   Overcast
2:03 AM 59.0 °F - 57.2 °F 94% 29.77 in 2.0 mi Calm Calm - N/A   Overcast
2:10 AM 59.0 °F - 59.0 °F 100% 29.77 in 5.0 mi Calm Calm - N/A   Overcast
2:53 AM 57.0 °F - 57.0 °F 100% 29.76 in 6.0 mi Calm Calm - N/A   Overcast
3:20 AM 55.4 °F - 55.4 °F 100% 29.75 in 1.8 mi Calm Calm - N/A   Overcast
3:33 AM 57.2 °F - 55.4 °F 94% 29.75 in 0.5 mi Calm Calm - N/A Fog Fog
3:53 AM 55.0 °F - 55.0 °F 100% 29.74 in 0.8 mi SSE 3.5 mph - N/A   Mist
4:03 AM 55.4 °F - 53.6 °F 94% 29.74 in 2.5 mi Calm Calm - N/A   Overcast
4:14 AM 55.4 °F - 55.4 °F 100% 29.74 in 1.2 mi Calm Calm - N/A   Overcast
4:28 AM 55.4 °F - 55.4 °F 100% 29.74 in 0.5 mi Calm Calm - N/A Fog Fog
4:35 AM 55.4 °F - 55.4 °F 100% 29.74 in 0.2 mi Calm Calm - N/A Fog Fog
4:44 AM 55.4 °F - 55.4 °F 100% 29.73 in 0.5 mi SSE 3.5 mph - N/A Fog Fog
4:53 AM 54.0 °F - 54.0 °F 100% 29.73 in 0.8 mi Calm Calm - N/A   Overcast
4:59 AM 55.4 °F - 55.4 °F 100% 29.74 in 0.2 mi Calm Calm - N/A Fog Fog
5:14 AM 53.6 °F - 53.6 °F 100% 29.74 in 1.0 mi Calm Calm - N/A   Overcast
5:18 AM 53.6 °F - 53.6 °F 100% 29.74 in 3.0 mi Calm Calm - N/A   Overcast
5:36 AM 53.6 °F - 53.6 °F 100% 29.74 in 1.8 mi Calm Calm - N/A   Overcast
5:46 AM 53.6 °F - 53.6 °F 100% 29.74 in 0.5 mi Calm Calm - N/A Fog Fog
5:53 AM 53.1 °F - 53.1 °F 100% 29.74 in 0.5 mi North 3.5 mph - N/A Fog Fog
6:01 AM 53.6 °F - 53.6 °F 100% 29.74 in 0.2 mi North 3.5 mph - N/A Fog Fog
6:21 AM 53.6 °F - 53.6 °F 100% 29.74 in 0.8 mi Calm Calm - N/A   Mist
6:29 AM 55.4 °F - 55.4 °F 100% 29.74 in 1.5 mi Calm Calm - N/A   Overcast
6:40 AM 55.4 °F - 55.4 °F 100% 29.74 in 0.8 mi Calm Calm - N/A   Mist
7:11 AM 53.6 °F - 53.6 °F 100% 29.75 in 0.2 mi Calm Calm - N/A Fog Fog
7:53 AM 59.0 °F - 59.0 °F 100% 29.76 in 0.2 mi Calm Calm - N/A Fog Fog
8:16 AM 62.6 °F - 62.6 °F 100% 29.77 in 0.5 mi Calm Calm - N/A Fog Fog
8:23 AM 62.6 °F - 62.6 °F 100% 29.77 in 2.0 mi East 3.5 mph - N/A   Overcast
8:31 AM 62.6 °F - 62.6 °F 100% 29.77 in 5.0 mi Calm Calm - N/A   Overcast
8:44 AM 64.4 °F - 64.4 °F 100% 29.77 in 9.0 mi ESE 4.6 mph - N/A   Scattered Clouds
8:53 AM 64.9 °F - 64.9 °F 100% 29.77 in 10.0 mi ESE 4.6 mph - N/A   Partly Cloudy
9:14 AM 66.2 °F - 64.4 °F 94% 29.78 in 10.0 mi Variable 4.6 mph - N/A   Mostly Cloudy
9:23 AM 68.0 °F - 66.2 °F 94% 29.78 in 10.0 mi SSE 4.6 mph - N/A   Scattered Clouds
9:53 AM 71.1 °F - 64.9 °F 81% 29.78 in 10.0 mi Calm Calm - N/A   Scattered Clouds
10:45 AM 73.4 °F - 64.4 °F 73% 29.79 in 10.0 mi Calm Calm - N/A   Mostly Cloudy
10:53 AM 73.0 °F - 64.9 °F 76% 29.79 in 10.0 mi Variable 3.5 mph - N/A   Mostly Cloudy
11:02 AM 73.4 °F - 64.4 °F 73% 29.79 in 10.0 mi SSW 3.5 mph - N/A   Scattered Clouds
11:53 AM 77.0 °F - 64.9 °F 66% 29.78 in 10.0 mi Variable 3.5 mph - N/A   Clear
12:53 PM 79.0 °F - 64.9 °F 62% 29.77 in 10.0 mi South 4.6 mph - N/A   Mostly Cloudy
1:53 PM 77.0 °F - 68.0 °F 74% 29.75 in 10.0 mi ESE 5.8 mph - N/A   Overcast
2:53 PM 80.1 °F 82.7 °F 68.0 °F 67% 29.73 in 10.0 mi SSE 11.5 mph - N/A   Scattered Clouds
3:53 PM 78.1 °F - 68.0 °F 71% 29.71 in 10.0 mi SSE 13.8 mph - N/A   Clear
4:53 PM 77.0 °F - 66.9 °F 71% 29.70 in 10.0 mi South 13.8 mph - N/A   Scattered Clouds
5:01 PM 77.0 °F - 66.2 °F 69% 29.70 in 10.0 mi South 15.0 mph - N/A   Mostly Cloudy
5:14 PM 75.2 °F - 66.2 °F 73% 29.70 in 10.0 mi South 12.7 mph - N/A   Scattered Clouds
5:25 PM 75.2 °F - 66.2 °F 73% 29.70 in 10.0 mi South 15.0 mph 21.9 mph N/A   Mostly Cloudy
5:35 PM 75.2 °F - 66.2 °F 73% 29.70 in 10.0 mi South 15.0 mph - N/A   Scattered Clouds
5:43 PM 75.2 °F - 66.2 °F 73% 29.70 in 10.0 mi SSE 15.0 mph - N/A   Mostly Cloudy
5:53 PM 75.0 °F - 66.9 °F 76% 29.70 in 10.0 mi South 12.7 mph - N/A   Mostly Cloudy
6:20 PM 73.4 °F - 66.2 °F 78% 29.71 in 10.0 mi South 10.4 mph - N/A   Scattered Clouds
6:33 PM 73.4 °F - 66.2 °F 78% 29.71 in 10.0 mi South 12.7 mph - N/A   Mostly Cloudy
6:53 PM 73.0 °F - 66.9 °F 81% 29.71 in 10.0 mi SSE 11.5 mph - N/A   Overcast
7:38 PM 69.8 °F - 66.2 °F 88% 29.70 in 10.0 mi SSE 10.4 mph - N/A   Scattered Clouds
7:53 PM 70.0 °F - 66.9 °F 90% 29.71 in 10.0 mi South 10.4 mph - N/A   Scattered Clouds
8:16 PM 69.8 °F - 66.2 °F 88% 29.72 in 10.0 mi SSE 10.4 mph - N/A   Mostly Cloudy
8:53 PM 69.1 °F - 66.9 °F 93% 29.73 in 10.0 mi SSE 9.2 mph - N/A   Mostly Cloudy
9:05 PM 69.8 °F - 66.2 °F 88% 29.73 in 10.0 mi SSE 10.4 mph - N/A   Scattered Clouds
9:53 PM 69.1 °F - 66.9 °F 93% 29.73 in 10.0 mi South 8.1 mph - N/A   Clear
10:53 PM 69.1 °F - 66.9 °F 93% 29.75 in 9.0 mi SSE 8.1 mph - N/A   Clear
11:33 PM 69.8 °F - 66.2 °F 88% 29.75 in 9.0 mi South 11.5 mph - N/A   Partly Cloudy
11:49 PM 69.8 °F - 68.0 °F 94% 29.75 in 9.0 mi South 11.5 mph - N/A   Mostly Cloudy
11:53 PM 70.0 °F - 68.0 °F 93% 29.75 in 9.0 mi South 11.5 mph - N/A   Mostly Cloudy